Weather History for LIMH - January, 2013

Change the Weather History Date:

Thursday, January 10, 2013

  Actual Average Record
Temperature  
Mean Temperature 16 °F -  
Max Temperature 21 °F 17 °F 30 °F (2005)
Min Temperature 12 °F 6 °F -2 °F (1997)
Degree Days  
Heating Degree Days 48    
Moisture  
Dew Point 2 °F    
Average Humidity 67    
Maximum Humidity 100    
Minimum Humidity 5    
Precipitation  
Precipitation 0.02 in - - ()
Sea Level Pressure  
Sea Level Pressure 29.80 in    
Wind  
Wind Speed 17 mph ()    
Max Wind Speed 30 mph    
Max Gust Speed -    
Visibility 3.2 miles    
Events Fog , Snow    
Averages and records for this station are not official NWS values.
T = Trace of Precipitation, MM = Missing Value Source: Averaged Metar Reports

Daily Weather History Graph

Daily Weather History Graph

Search for Another Location

Airport or City:

Trip Planner

Search our weather history database for the weather conditions in past years. The results will help you decide how hot, cold, wet, or windy it might be!

Date:

Astronomy

Jan. 10, 2013 Rise Set
Actual Time 8:09 AM CET 5:04 PM CET
Civil Twilight 7:35 AM CET 5:38 PM CET
Nautical Twilight 6:58 AM CET 6:15 PM CET
Astronomical Twilight 6:22 AM CET 6:51 PM CET
Moon 6:33 AM CET (1/10) 3:54 PM CET (1/10)
Length of Visible Light 10h 02m
Length of Day
8h 55m
Waning Crescent, 3% of the Moon is Illuminated
Jan 10
Waning Crescent
Jan 11
New
Jan 19
First Quarter
Jan 27
Full
Feb 3
Last Quarter

Hourly Weather History & Observations

Time (CET) Temp. Windchill Dew Point Humidity Pressure Visibility Wind Dir Wind Speed Gust Speed Precip Events Conditions
12:55 AM 21.2 °F 7.8 °F -22.0 °F 14% 29.98 in - NE 15.0 mph - N/A   Clear
1:00 AM 20 °F - -22 °F 5%  in 6 mi NE 15.0 mph - -   Clear
1:55 AM 21.2 °F 5.6 °F -22.0 °F 14% 29.95 in 6.2 mi North 20.7 mph - N/A   Scattered Clouds
2:55 AM 19.4 °F 6.6 °F -22.0 °F 15% 29.92 in 6.2 mi North 12.7 mph - N/A   Scattered Clouds
3:55 AM 17.6 °F -0.6 °F -14.8 °F 23% 29.86 in 6.2 mi NE 25.3 mph - N/A   Scattered Clouds
4:55 AM 15.8 °F -3.1 °F -13.0 °F 27% 29.86 in 6.2 mi NE 25.3 mph - N/A   Mostly Cloudy
6:55 AM 14.0 °F -6.5 °F -7.6 °F 38% 29.83 in 6.2 mi ENE 28.8 mph - N/A   Scattered Clouds
7:00 AM 15 °F - -8 °F 20%  in 6 mi ENE 28.8 mph - -   Partly Cloudy
7:55 AM 14.0 °F -6.8 °F -4.0 °F 45% 29.83 in 6.2 mi ENE 29.9 mph - N/A   Mostly Cloudy
8:55 AM 14.0 °F -6.2 °F 1.4 °F 57% 29.83 in 6.2 mi ENE 27.6 mph - N/A   Scattered Clouds
9:55 AM 14.0 °F -5.1 °F 5.0 °F 67% 29.83 in 6.2 mi ENE 24.2 mph - N/A   Mostly Cloudy
10:00 AM 14 °F - 5 °F 53%  in 12 mi ENE 24.2 mph - -   Mostly Cloudy
10:55 AM 14.0 °F -3.0 °F 8.6 °F 79% 29.83 in 6.2 mi ENE 18.4 mph - N/A   Scattered Clouds
11:55 AM 14.0 °F -3.9 °F 10.4 °F 86% 29.83 in 6.2 mi NE 20.7 mph - N/A   Scattered Clouds
12:55 PM 14.0 °F -3.4 °F 14.0 °F 100% 29.80 in 0.3 mi NNE 19.6 mph - N/A Fog , Snow Light Snow
1:00 PM 14 °F - 14 °F 98%  in 0 mi NNE 19.6 mph - - Snow Light Snow
2:55 PM 12.2 °F -1.8 °F 12.2 °F 100% 29.77 in 0.3 mi North 11.5 mph - N/A Fog , Snow Light Snow
3:55 PM 12.2 °F -4.8 °F 10.4 °F 92% 29.74 in 0.3 mi NNE 17.3 mph - N/A Fog , Snow Light Snow
4:00 PM 12 °F - 11 °F 93%  in 0 mi NNE 17.3 mph - - Snow Light Snow
4:55 PM 12.2 °F -4.8 °F 10.4 °F 92% 29.74 in 0.1 mi NNE 17.3 mph - N/A Fog , Snow Light Snow
5:55 PM 12.2 °F -3.7 °F 10.4 °F 92% 29.74 in 0.1 mi NNE 15.0 mph - N/A Fog , Snow Light Snow
6:55 PM 12.2 °F -3.1 °F 12.2 °F 100% 29.71 in 0.1 mi NNE 13.8 mph - N/A Fog , Snow Light Snow
7:55 PM 12.2 °F -1.0 °F 12.2 °F 100% 29.74 in 0.1 mi North 10.4 mph - N/A Fog , Snow Light Snow
8:55 PM 12.2 °F 1.7 °F 12.2 °F 100% 29.71 in 0.1 mi NNE 6.9 mph - N/A Fog , Snow Light Snow
9:55 PM 15.8 °F 0.3 °F 14.0 °F 93% 29.74 in 0.1 mi NNW 16.1 mph - N/A Fog , Snow Light Snow
10:00 PM 15 °F - 14 °F 92%  in 0 mi NNW 16.1 mph - - Snow Light Snow
10:55 PM 14.0 °F 2.0 °F 12.2 °F 93% 29.71 in 0.1 mi North 9.2 mph - N/A Fog , Snow Light Snow
11:55 PM 12.2 °F -3.1 °F 12.2 °F 100% 29.71 in 0.1 mi NE 13.8 mph - N/A Fog , Snow Light Snow